Home   Weather   Homburg (Saar)   Past weeks

Flag for Germany Past Weather in Homburg (Saar), Saarland, Germany — Yesterday and Last 2 Weeks

Now
63 °F

Partly sunny.


Feels Like: 63 °F
Forecast: 56 / 70 °F
Wind: 14 mph from West

Location: Saarbruecken / Ensheim

Current Time: Jul 25, 2017 at 4:42:58 pm

Latest Report: Jul 25, 2017 at 3:50 pm


Visibility: N/A

Pressure: 29.83 "Hg

Humidity: 73%

Dew Point: 54 °F

Location of Homburg (Saar)Location

Past Weather in Homburg (Saar) — Graph

°F

Homburg (Saar) Temperature Yesterday

Maximum temperature yesterday: 63 °F (at 12:20 am)
Minimum temperature yesterday: 54 °F (at 7:28 am)
Average temperature yesterday: 57 °F

High & Low Weather Summary for the Past Weeks

 TemperatureHumidityPressure
High88 °F (Jul 19, 5:50 pm)100% (Jul 11, 12:31 am)30.27 "Hg (Jul 11, 12:31 am)
Low48 °F (Jul 13, 4:20 am)30% (Jul 13, 3:50 pm)29.77 "Hg (Jul 24, 5:50 am)
Average65 °F73%30.01 "Hg
* Reported Jul 10 3:20 pm — Jul 25 3:50 pm, Homburg (Saar). Weather by CustomWeather, © 2017

Note: Actual official high and low records may vary slightly from our data, if they occured in-between our weather recording intervals... More about our weather records

Advertising

Homburg (Saar) Weather History for the Previous 24 Hours

Scroll right to see more
 ConditionsComfort  
Time TempWeatherWind HumidityBarometerVisibility
3:50 pm
Tue, Jul 25
63 °FPartly sunny.14 mph73%29.83 "HgN/A
3:20 pm63 °FBroken clouds.14 mph77%29.83 "HgN/A
2:50 pm63 °FBroken clouds.8 mph88%29.86 "HgN/A
2:26 pm57 °FSprinkles. Broken clouds.12 mph88%29.86 "Hg5 mi
1:50 pm61 °FSprinkles. Scattered clouds.16 mph77%29.86 "HgN/A
1:20 pm61 °FScattered clouds.14 mph77%29.86 "HgN/A
12:50 pm61 °FBroken clouds.13 mph83%29.86 "HgN/A
12:20 pm57 °FBroken clouds.12 mph88%29.86 "HgN/A
11:50 am55 °FBroken clouds.12 mph100%29.89 "HgN/A
11:20 am57 °FPartly sunny.14 mph88%29.89 "HgN/A
10:50 am57 °FPartly sunny.12 mph88%29.86 "HgN/A
10:20 am55 °FPartly sunny.10 mph94%29.86 "HgN/A
9:50 am55 °FPartly sunny.13 mph94%29.86 "HgN/A
9:20 am55 °FLight rain. Partly sunny.12 mph94%29.86 "HgN/A
8:50 am55 °FLight rain. Partly sunny.10 mph94%29.86 "Hg6 mi
8:20 am54 °FLight rain. Partly sunny.10 mph100%29.86 "HgN/A
7:50 am54 °FLight rain. Partly sunny.10 mph100%29.86 "HgN/A
7:20 am54 °FPartly sunny.10 mph100%29.86 "Hg6 mi
6:50 am55 °FPartly sunny.10 mph94%29.86 "HgN/A
6:20 am55 °FMostly cloudy.10 mph94%29.86 "HgN/A
5:50 am54 °FMostly cloudy.9 mph100%29.86 "Hg6 mi
5:20 am54 °FPassing clouds.9 mph100%29.86 "Hg4 mi
4:50 am54 °FPassing clouds.9 mph100%29.86 "HgN/A
4:20 am54 °FPartly cloudy.8 mph94%29.86 "HgN/A
3:50 am54 °FPartly cloudy.6 mph94%29.89 "HgN/A
3:20 am54 °FPassing clouds.6 mph94%29.89 "HgN/A
2:50 am54 °FPassing clouds.6 mph94%29.89 "HgN/A
2:20 am54 °FPartly cloudy.7 mph94%29.89 "HgN/A
1:50 am54 °FPassing clouds.7 mph94%29.89 "HgN/A
1:20 am54 °FPassing clouds.9 mph94%29.89 "HgN/A
12:50 am54 °FPassing clouds.9 mph94%29.89 "HgN/A
12:20 am55 °FPassing clouds.9 mph94%29.89 "HgN/A
11:50 pm
Mon, Jul 24
55 °FPassing clouds.8 mph94%29.86 "HgN/A
11:20 pm55 °FOvercast.7 mph94%29.86 "HgN/A
10:50 pm55 °FPartly cloudy.8 mph94%29.86 "HgN/A
10:20 pm57 °FSprinkles. Partly cloudy.7 mph88%29.86 "HgN/A
9:50 pm55 °FPartly cloudy.7 mph94%29.89 "HgN/A
8:50 pm57 °FBroken clouds.7 mph88%29.86 "HgN/A
8:20 pm57 °FScattered clouds.5 mph88%29.86 "HgN/A
7:50 pm57 °FScattered clouds.8 mph88%29.86 "HgN/A
7:20 pm59 °FScattered clouds.10 mph82%29.86 "HgN/A
6:50 pm59 °FScattered clouds.10 mph88%29.86 "HgN/A
6:20 pm57 °FBroken clouds.12 mph88%29.86 "HgN/A
5:50 pm55 °FBroken clouds.13 mph94%29.86 "HgN/A
5:20 pm55 °FSprinkles. Broken clouds.10 mph94%29.86 "HgN/A
4:50 pm54 °FSprinkles. Broken clouds.8 mph94%29.86 "HgN/A
4:31 pm55 °FThunderstorms. Partly sunny.17 mph88%29.86 "Hg3 mi
4:20 pm59 °FThunderstorms. Broken clouds.8 mph82%29.86 "HgN/A
Weather by CustomWeather, © 2017

See weather overviewHow to use our weather pages